GW6887 Weather Reports


time (UTC)temp
C
wind
direction
speed
KPH
gust
KPH
rain 1hr
cm
rain 24hr
cm
rain mn
cm
humidity
%
barometer
mb
20260509064707 8 160 3.2 3.2 0.00 0.00 0.00 52 1006.0
20260509064207 8 162 1.6 9.7 0.00 0.00 0.00 51 1006.1
20260509063707 8 152 1.6 3.2 0.00 0.00 0.00 50 1006.1
20260509062707 8 157 1.6 3.2 0.00 0.00 0.00 48 1006.3
20260509062207 8 155 1.6 3.2 0.00 0.00 0.00 49 1006.3
20260509061707 8 169 1.6 3.2 0.00 0.00 0.00 48 1006.3
20260509060707 8 141 1.6 3.2 0.00 0.00 0.00 49 1006.4
20260509060207 8 155 0.0 3.2 0.00 0.00 0.00 48 1006.5
20260509055707 8 167 1.6 3.2 0.00 0.00 0.00 48 1006.5
20260509055207 8 164 1.6 3.2 0.00 0.00 0.00 48 1006.5
20260509054707 8 198 1.6 3.2 0.00 0.00 0.00 47 1006.6
20260509053707 8 185 1.6 9.7 0.00 0.00 0.00 46 1006.6
20260509052707 9 192 1.6 4.8 0.00 0.00 0.00 44 1006.6
20260509052207 8 213 1.6 3.2 0.00 0.00 0.00 44 1006.6
20260509051707 8 184 3.2 4.8 0.00 0.00 0.00 46 1006.5
20260509050707 8 168 1.6 3.2 0.00 0.00 0.00 44 1006.7
20260509050207 8 181 1.6 3.2 0.00 0.00 0.00 43 1006.6
20260509045707 8 197 1.6 3.2 0.00 0.00 0.00 45 1006.7
20260509045207 8 211 1.6 3.2 0.00 0.00 0.00 43 1006.7
20260509044707 8 191 1.6 3.2 0.00 0.00 0.00 46 1006.7
20260509044206 8 179 1.6 4.8 0.00 0.00 0.00 47 1006.7
20260509043707 8 161 1.6 3.2 0.00 0.00 0.00 47 1006.8
20260509042707 8 202 1.6 3.2 0.00 0.00 0.00 44 1006.9
20260509042207 8 206 1.6 3.2 0.00 0.00 0.00 46 1007.0
20260509041206 8 176 1.6 3.2 0.00 0.00 0.00 48 1007.0
20260509040707 8 154 1.6 3.2 0.00 0.00 0.00 48 1007.1
20260509040207 8 150 1.6 3.2 0.00 0.00 0.00 50 1007.2
20260509035207 8 167 1.6 3.2 0.00 0.00 0.00 48 1007.3
20260509034708 8 167 1.6 3.2 0.00 0.00 0.00 48 1007.4
20260509034206 8 153 1.6 3.2 0.00 0.00 0.00 49 1007.4
20260509033707 8 150 1.6 3.2 0.00 0.00 0.00 49 1007.5
20260509033207 9 160 0.0 3.2 0.00 0.00 0.00 46 1007.5
20260509032708 9 229 0.0 3.2 0.00 0.00 0.00 50 1007.6
20260509032207 9 204 0.0 3.2 0.00 0.00 0.00 47 1007.6
20260509031706 9 148 1.6 1.6 0.00 0.00 0.00 48 1007.6
20260509031207 9 218 0.0 1.6 0.00 0.00 0.00 48 1007.7
20260509030707 8 147 0.0 1.6 0.00 0.00 0.00 48 1007.8
20260509030207 8 157 0.0 1.6 0.00 0.00 0.00 48 1007.8
20260509024707 9 176 1.6 3.2 0.00 0.00 0.00 51 1008.0
20260509024206 9 151 1.6 3.2 0.00 0.00 0.00 48 1008.0
20260509023706 9 287 1.6 1.6 0.00 0.00 0.00 52 1008.0
20260509023207 9 238 0.0 3.2 0.00 0.00 0.00 46 1008.0
20260509022706 9 110 1.6 4.8 0.00 0.00 0.00 47 1008.0
20260509022206 10 276 0.0 3.2 0.00 0.00 0.00 47 1008.0
20260509021707 10 180 0.0 1.6 0.00 0.00 0.00 47 1008.0
20260509021206 10 155 0.0 3.2 0.00 0.00 0.00 47 1008.0
20260509015207 10 174 1.6 3.2 0.00 0.00 0.00 47 1007.9
20260509014206 11 157 0.0 3.2 0.00 0.00 0.00 48 1007.9
20260509013707 11 162 0.0 3.2 0.00 0.00 0.00 45 1007.9
20260509013207 11 165 1.6 3.2 0.00 0.00 0.00 46 1007.9
20260509012706 11 154 1.6 3.2 0.00 0.00 0.00 44 1007.9
20260509012207 12 153 0.0 1.6 0.00 0.00 0.00 42 1007.9
20260509011206 12 166 1.6 3.2 0.00 0.00 0.00 39 1007.9
20260509010206 13 185 0.0 1.6 0.00 0.00 0.00 37 1007.9
20260509004707 14 141 1.6 3.2 0.00 0.00 0.00 36 1007.9
20260509004206 15 215 1.6 4.8 0.00 0.00 0.00 34 1007.9
20260509003706 15 223 1.6 4.8 0.00 0.00 0.00 33 1008.0
20260509003206 15 244 3.2 9.7 0.00 0.00 0.00 32 1008.0
20260509002707 15 259 4.8 11.3 0.00 0.00 0.00 31 1007.9
20260509002207 16 226 3.2 8.0 0.00 0.00 0.00 31 1007.9
20260509001707 16 250 4.8 11.3 0.00 0.00 0.00 31 1008.0
20260509001207 16 209 4.8 11.3 0.00 0.00 0.00 30 1008.0
20260509000207 16 215 6.4 12.9 0.00 0.00 0.00 30 1008.1
20260508235706 16 213 4.8 12.9 0.00 0.00 0.00 30 1008.1
20260508235207 16 220 4.8 12.9 0.00 0.00 0.00 29 1008.2
20260508234707 16 233 4.8 12.9 0.00 0.00 0.00 30 1008.3
20260508234207 16 298 6.4 16.1 0.00 0.00 0.00 30 1008.3
20260508232707 16 269 4.8 9.7 0.00 0.00 0.00 30 1008.3
20260508232206 16 268 6.4 14.5 0.00 0.00 0.00 30 1008.3
20260508231706 16 273 8.0 12.9 0.00 0.00 0.00 30 1008.4
20260508225706 17 304 8.0 14.5 0.00 0.00 0.00 29 1008.3
20260508225206 17 285 4.8 9.7 0.00 0.00 0.00 29 1008.3
20260508224707 17 271 6.4 14.5 0.00 0.00 0.00 30 1008.3
20260508223706 16 256 6.4 20.9 0.00 0.00 0.00 29 1008.4
20260508223207 16 256 6.4 20.9 0.00 0.00 0.00 30 1008.4
20260508222706 16 286 9.7 22.5 0.00 0.00 0.00 30 1008.4
20260508222206 16 293 9.7 24.1 0.00 0.00 0.00 30 1008.4
20260508221706 16 272 4.8 14.5 0.00 0.00 0.00 30 1008.4
20260508221206 16 306 12.9 20.9 0.00 0.00 0.00 30 1008.4
20260508220706 16 294 11.3 20.9 0.00 0.00 0.00 30 1008.4
20260508220206 16 297 8.0 19.3 0.00 0.00 0.00 30 1008.4
20260508214706 16 290 11.3 16.1 0.00 0.00 0.00 30 1008.4
20260508214207 16 295 11.3 16.1 0.00 0.00 0.00 31 1008.5
20260508213706 16 287 9.7 16.1 0.00 0.00 0.00 31 1008.5
20260508213206 16 269 8.0 16.1 0.00 0.00 0.00 30 1008.5
20260508212706 16 285 8.0 16.1 0.00 0.00 0.00 30 1008.6
20260508212206 16 298 9.7 19.3 0.00 0.00 0.00 31 1008.5
20260508211206 16 279 11.3 16.1 0.00 0.00 0.00 31 1008.6
20260508210706 16 208 9.7 20.9 0.00 0.00 0.00 32 1008.6
20260508205706 16 231 4.8 14.5 0.00 0.00 0.00 31 1008.7
20260508205206 16 285 8.0 19.3 0.00 0.00 0.00 31 1008.8
20260508204706 16 257 8.0 19.3 0.00 0.00 0.00 30 1008.7
20260508203707 16 297 8.0 14.5 0.00 0.00 0.00 29 1008.8
20260508203206 16 306 4.8 11.3 0.00 0.00 0.00 30 1008.9
20260508202707 16 292 8.0 20.9 0.00 0.00 0.00 31 1009.0
20260508202206 16 276 6.4 20.9 0.00 0.00 0.00 31 1009.0
20260508201706 16 286 9.7 16.1 0.00 0.00 0.00 31 1009.0
20260508201206 16 252 9.7 20.9 0.00 0.00 0.00 31 1009.1
20260508200706 16 252 4.8 14.5 0.00 0.00 0.00 31 1009.1
20260508200206 16 282 6.4 14.5 0.00 0.00 0.00 31 1009.3
20260508195706 16 243 9.7 22.5 0.00 0.00 0.00 31 1009.4
20260508195207 16 278 9.7 22.5 0.00 0.00 0.00 30 1009.4
20260508194706 16 290 8.0 19.3 0.00 0.00 0.00 30 1009.4
20260508194206 16 289 12.9 22.5 0.00 0.00 0.00 29 1009.5
20260508193706 16 276 8.0 22.5 0.00 0.00 0.00 31 1009.6
20260508193206 16 292 16.1 22.5 0.00 0.00 0.00 30 1009.5
20260508192706 16 256 8.0 12.9 0.00 0.00 0.00 31 1009.6
20260508192206 16 339 8.0 16.1 0.00 0.00 0.00 32 1009.6
20260508191706 15 314 9.7 20.9 0.00 0.00 0.00 32 1009.6
20260508191206 15 291 11.3 19.3 0.00 0.00 0.00 32 1009.6
20260508190706 15 278 9.7 32.2 0.00 0.00 0.00 33 1009.7
20260508185706 15 240 9.7 19.3 0.00 0.00 0.00 33 1009.8
20260508185206 15 279 6.4 12.9 0.00 0.00 0.00 31 1009.9
20260508184706 15 216 6.4 14.5 0.00 0.00 0.00 31 1009.9
20260508184206 15 211 6.4 20.9 0.00 0.00 0.00 32 1010.0
20260508183206 15 292 9.7 19.3 0.00 0.00 0.00 33 1010.0
20260508182706 15 261 6.4 16.1 0.00 0.00 0.00 36 1010.2
20260508182206 15 238 8.0 16.1 0.00 0.00 0.00 36 1010.2
20260508181706 15 22 4.8 12.9 0.00 0.00 0.00 36 1010.2
20260508181206 15 229 9.7 14.5 0.00 0.00 0.00 36 1010.2
20260508180705 15 315 8.0 14.5 0.00 0.00 0.00 36 1010.3
20260508180206 15 297 8.0 20.9 0.00 0.00 0.00 35 1010.4
20260508175205 15 302 11.3 20.9 0.00 0.00 0.00 35 1010.5
20260508174706 15 153 6.4 16.1 0.00 0.00 0.00 35 1010.5
20260508174206 15 278 9.7 20.9 0.00 0.00 0.00 34 1010.6
20260508173706 15 309 14.5 22.5 0.00 0.00 0.00 34 1010.7
20260508172206 15 282 8.0 16.1 0.00 0.00 0.00 35 1011.0
20260508171706 15 237 8.0 14.5 0.00 0.00 0.00 34 1011.1
20260508171206 15 230 9.7 14.5 0.00 0.00 0.00 34 1011.1
20260508170706 15 234 8.0 20.9 0.00 0.00 0.00 34 1011.3
20260508165206 15 316 9.7 20.9 0.00 0.00 0.00 32 1011.4
20260508164705 15 304 6.4 16.1 0.00 0.00 0.00 34 1011.5
20260508164206 14 255 9.7 20.9 0.00 0.00 0.00 33 1011.5
20260508163705 14 218 8.0 14.5 0.00 0.00 0.00 35 1011.6
20260508163205 14 298 4.8 16.1 0.00 0.00 0.00 33 1011.6
20260508162706 13 240 4.8 16.1 0.00 0.00 0.00 36 1011.6
20260508162205 13 230 8.0 19.3 0.00 0.00 0.00 35 1011.6
20260508161705 13 291 4.8 12.9 0.00 0.00 0.00 34 1011.8
20260508161206 13 12 4.8 20.9 0.00 0.00 0.00 35 1011.7
20260508160205 13 270 8.0 16.1 0.00 0.00 0.00 33 1011.7
20260508155706 13 268 6.4 14.5 0.00 0.00 0.00 34 1011.8
20260508155205 13 358 6.4 16.1 0.00 0.00 0.00 32 1011.7
20260508154206 13 233 8.0 14.5 0.00 0.00 0.00 35 1011.7
20260508153705 13 317 8.0 16.1 0.00 0.00 0.00 37 1011.7
20260508152705 13 194 4.8 12.9 0.00 0.00 0.00 40 1011.8
20260508152206 12 311 3.2 19.3 0.00 0.00 0.00 39 1011.8
20260508151706 12 258 8.0 14.5 0.00 0.00 0.00 40 1012.0
20260508151205 12 201 9.7 19.3 0.00 0.00 0.00 40 1012.0
20260508150705 12 239 9.7 19.3 0.00 0.00 0.00 41 1012.1
20260508150205 12 295 8.0 16.1 0.00 0.00 0.00 40 1012.1
20260508145706 12 267 9.7 22.5 0.00 0.00 0.00 40 1012.1
20260508145206 12 213 6.4 14.5 0.00 0.00 0.00 38 1012.0
20260508144705 12 235 3.2 12.9 0.00 0.00 0.00 41 1012.1
20260508144205 12 312 8.0 16.1 0.00 0.00 0.00 39 1012.1
20260508143705 11 307 9.7 16.1 0.00 0.00 0.00 46 1012.0
20260508143206 11 254 4.8 12.9 0.00 0.00 0.00 45 1012.1
20260508142705 11 234 8.0 12.9 0.00 0.00 0.00 47 1012.2
20260508142206 11 237 8.0 14.5 0.00 0.00 0.00 48 1012.3
20260508141705 11 224 4.8 11.3 0.00 0.00 0.00 49 1012.4
20260508141205 11 261 6.4 11.3 0.00 0.00 0.00 47 1012.4
20260508140707 10 242 3.2 11.3 0.00 0.00 0.00 52 1012.4
20260508140205 10 226 4.8 11.3 0.00 0.00 0.00 59 1012.5
20260508135205 10 221 8.0 11.3 0.00 0.00 0.00 61 1012.4
20260508134705 10 223 4.8 9.7 0.00 0.00 0.00 62 1012.5
20260508134205 10 222 4.8 8.0 0.00 0.00 0.00 63 1012.5
20260508133707 9 263 3.2 9.7 0.00 0.00 0.00 65 1012.5
20260508133206 9 215 4.8 8.0 0.00 0.00 0.00 65 1012.5
20260508132205 8 227 3.2 8.0 0.00 0.00 0.00 67 1012.6
20260508131706 8 243 3.2 8.0 0.00 0.00 0.00 67 1012.6
20260508130205 8 224 4.8 8.0 0.00 0.00 0.00 67 1012.7
20260508125205 7 242 3.2 8.0 0.00 0.00 0.00 66 1012.7
20260508124705 7 201 1.6 4.8 0.00 0.00 0.00 68 1012.7
20260508124205 7 235 3.2 9.7 0.00 0.00 0.00 69 1012.7
20260508123205 6 226 4.8 11.3 0.00 0.00 0.00 71 1012.7
20260508122705 6 232 4.8 9.7 0.00 0.00 0.00 72 1012.6
20260508121705 5 230 3.2 8.0 0.00 0.00 0.00 74 1012.5
20260508121205 5 244 4.8 8.0 0.00 0.00 0.00 76 1012.4
20260508120705 5 249 3.2 4.8 0.00 0.00 0.00 78 1012.4
20260508120205 5 280 1.6 3.2 0.00 0.00 0.00 80 1012.3
20260508115705 5 292 1.6 3.2 0.00 0.00 0.00 81 1012.3
20260508115206 5 269 0.0 3.2 0.00 0.00 0.00 80 1012.3
20260508114705 4 327 0.0 1.6 0.00 0.00 0.00 82 1012.2
20260508114205 3 111 0.0 1.6 0.00 0.00 0.00 84 1012.0
20260508113704 2 174 0.0 3.2 0.00 0.00 0.00 86 1012.0
20260508113205 2 110 0.0 1.6 0.00 0.00 0.00 88 1012.0
20260508112705 1 104 0.0 1.6 0.00 0.00 0.00 92 1012.1
20260508112205 1 143 0.0 1.6 0.00 0.00 0.00 93 1012.1
20260508111705 0 105 0.0 1.6 0.00 0.00 0.00 95 1012.1
20260508111205 0 216 1.6 3.2 0.00 0.00 0.00 95 1012.1
20260508110705 0 163 0.0 1.6 0.00 0.00 0.00 96 1012.1
20260508110205 0 10 0.0 1.6 0.00 0.00 0.00 96 1012.0
20260508105704 0 6 0.0 3.2 0.00 0.00 0.00 96 1011.9
20260508104704 0 65 0.0 3.2 0.00 0.00 0.00 96 1011.9
20260508104205 0 46 0.0 3.2 0.00 0.00 0.00 96 1011.9
20260508103205 0 92 0.0 3.2 0.00 0.00 0.00 96 1011.9
20260508102205 0 182 0.0 1.6 0.00 0.00 0.00 96 1012.0
20260508101705 0 75 0.0 3.2 0.00 0.00 0.00 96 1012.0
20260508101205 0 62 1.6 3.2 0.00 0.00 0.00 96 1012.0
20260508100705 0 40 1.6 3.2 0.00 0.00 0.00 96 1012.1
20260508100205 0 57 0.0 3.2 0.00 0.00 0.00 95 1012.0
20260508095705 0 60 1.6 3.2 0.00 0.00 0.00 95 1012.0
20260508095205 0 83 0.0 1.6 0.00 0.00 0.00 95 1012.1
20260508094705 0 343 0.0 1.6 0.00 0.00 0.00 94 1012.1
20260508094205 0 48 0.0 1.6 0.00 0.00 0.00 94 1012.1
20260508093205 0 65 0.0 3.2 0.00 0.00 0.00 94 1012.2
20260508092705 0 85 0.0 3.2 0.00 0.00 0.00 94 1012.2
20260508092204 0 43 1.6 3.2 0.00 0.00 0.00 93 1012.2
20260508091704 0 348 0.0 3.2 0.00 0.00 0.00 93 1012.2
20260508091204 0 8 0.0 1.6 0.00 0.00 0.00 92 1012.2
20260508090705 1 8 0.0 1.6 0.00 0.00 0.00 92 1012.2
20260508090205 1 41 0.0 3.2 0.00 0.00 0.00 92 1012.2
20260508085205 1 46 0.0 3.2 0.00 0.00 0.00 92 1012.2
20260508084704 1 52 1.6 3.2 0.00 0.00 0.00 92 1012.2
20260508084204 1 66 0.0 3.2 0.00 0.00 0.00 92 1012.1
20260508083705 1 142 0.0 1.6 0.00 0.00 0.00 92 1012.1
20260508083205 1 129 0.0 1.6 0.00 0.00 0.00 91 1012.1
20260508082705 1 69 0.0 1.6 0.00 0.00 0.00 91 1012.2
20260508082204 1 5 0.0 1.6 0.00 0.00 0.00 91 1012.2
20260508081704 1 111 0.0 3.2 0.00 0.00 0.00 90 1012.3
20260508080705 1 46 1.6 3.2 0.00 0.00 0.00 91 1012.3
20260508080205 1 38 0.0 1.6 0.00 0.00 0.00 91 1012.4
20260508075705 1 101 0.0 1.6 0.00 0.00 0.00 91 1012.4
20260508075206 1 27 0.0 1.6 0.00 0.00 0.00 91 1012.4
20260508074704 1 88 0.0 1.6 0.00 0.00 0.00 91 1012.3
20260508074204 2 148 1.6 1.6 0.00 0.00 0.00 90 1012.3
20260508073705 2 117 0.0 1.6 0.00 0.00 0.00 90 1012.3
20260508073204 2 120 0.0 1.6 0.00 0.00 0.00 90 1012.4
20260508072705 2 149 0.0 1.6 0.00 0.00 0.00 90 1012.4
20260508072204 2 197 0.0 1.6 0.00 0.00 0.00 90 1012.4
20260508071704 2 83 0.0 3.2 0.00 0.00 0.00 90 1012.4
20260508071205 2 33 1.6 3.2 0.00 0.00 0.00 89 1012.4
20260508070705 2 131 0.0 3.2 0.00 0.00 0.00 89 1012.4
20260508070205 2 176 0.0 3.2 0.00 0.00 0.00 88 1012.5
20260508065704 2 105 0.0 1.6 0.00 0.00 0.00 87 1012.5